Location: Celina Division
(33.3022°N, 96.7580°W)
Time: 02:30:58
(UTC+00:00)

NOAA 18 - Pass Details

Date: 10 April 2023
Orbit: 838 x 860 km, 98.9° (Epoch: 07 June)

Event Time Altitude Azimuth Distance (km) Brightness Sun altitude
Exits shadow 03:57:18 21° 14° (NNE) 1,852 7.2 -35.4°
Drops below altitude 10° 03:59:11 10° 3° (N) 2,500 8.0 -35.7°
Sets 04:01:41 0° 356° (N) 3,439 8.9 -36.1°
